This demonstration page uses our WeatherBlox Daily Observations layout. Learn more.

Left ArrowRight Arrow

31.84235, -102.49876

Hourly Observations for March 7, 2022

Temp ( °F °C ) Dew Point ( °F °C ) Humidity (%) Winds ( mph kmh ) Pressure ( in mb ) Visibility ( mi km ) Precip ( " mm )
12:53 am 00:53 Clear 35 1.7 28 -2.2 76 76 E 9 15 30.09 1019 10 16 0.00 0.00
1:53 am 01:53 Clear 34 1.1 26 -3.3 73 73 ENE 16 26 30.12 1020 10 16 0.00 0.00
2:53 am 02:53 Clear 32 0 26 -3.3 79 79 NE 12 19 30.13 1020 10 16 0.00 0.00
3:53 am 03:53 Clear 30 -1.1 23 -5 75 75 NE 13 20 30.15 1021 10 16 0.00 0.00
4:53 am 04:53 Clear 29 -1.7 22 -5.6 75 75 NE 14 22 30.18 1022 10 16 0.00 0.00
5:53 am 05:53 Clear 28 -2.2 20 -6.7 72 72 ENE 14 22 30.22 1023 10 16 0.00 0.00
6:53 am 06:53 Clear 26 -3.3 19 -7.2 75 75 ENE 10 17 30.26 1025 10 16 0.00 0.00
7:53 am 07:53 Sunny 28 -2.2 18 -7.8 66 66 NE 13 20 30.31 1026 10 16 0.00 0.00
8:53 am 08:53 Sunny 31 -0.6 19 -7.2 61 61 NE 14 22 30.35 1028 10 16 0.00 0.00
9:53 am 09:53 Sunny 33 0.6 18 -7.8 54 54 NE 18 30 30.36 1028 10 16 0.00 0.00
10:53 am 10:53 Sunny 35 1.7 17 -8.3 48 48 NE 14 22 30.36 1028 10 16 0.00 0.00
11:53 am 11:53 Sunny 36 2.2 17 -8.3 46 46 NNE 8 13 30.35 1028 10 16 0.00 0.00
12:53 pm 12:53 Sunny 40 4.4 16 -8.9 38 38 NE 10 17 30.31 1026 10 16 0.00 0.00
1:53 pm 13:53 Sunny 43 6.1 16 -8.9 34 34 E 9 15 30.25 1025 10 16 0.00 0.00
2:53 pm 14:53 Sunny 43 6.1 16 -8.9 34 34 NNE 12 19 30.22 1023 10 16 0.00 0.00
3:53 pm 15:53 Sunny 45 7.2 16 -8.9 31 31 E 10 17 30.19 1022 10 16 0.00 0.00
4:53 pm 16:53 Sunny 45 7.2 16 -8.9 31 31 E 8 13 30.16 1022 10 16 0.00 0.00
5:53 pm 17:53 Sunny 44 6.7 16 -8.9 32 32 E 10 17 30.16 1021 10 16 0.00 0.00
6:53 pm 18:53 Clear 43 6.1 16 -8.9 34 34 E 12 19 30.16 1021 10 16 0.00 0.00
7:53 pm 19:53 Clear 42 5.6 16 -8.9 35 35 E 9 15 30.15 1021 10 16 0.00 0.00
8:53 pm 20:53 Clear 41 5 15 -9.4 35 35 E 10 17 30.15 1021 10 16 0.00 0.00
9:53 pm 21:53 Clear 40 4.4 15 -9.4 36 36 E 10 17 30.15 1021 10 16 0.00 0.00
10:53 pm 22:53 Clear 39 3.9 15 -9.4 38 38 E 9 15 30.15 1021 10 16 0.00 0.00
11:53 pm 23:53 Clear 37 2.8 15 -9.4 41 41 E 10 17 30.14 1021 10 16 0.00 0.00

Powered by AerisWeather